{"data":{"norad_id":69617,"intl_designator":"2026-140AB","name":"KUIPER-00550","alt_names":[],"object_type":"PAYLOAD","status":"ACTIVE","operator":null,"country":"US","launch_date":"2026-06-17","launch_site_code":"FRGUI","launch_vehicle":null,"mission":null,"orbit_class":"UNKNOWN","rcs_meters":null,"size_class":null,"mass_kg":null,"dimensions":null,"purposes":[],"wikipedia_slug":null,"has_3d_model":false,"image_url":null,"decayed_at":null,"tle_current":{"epoch":"2026-09-20T04:00:03.000096Z","epoch_age_seconds":57813,"freshness":"FRESH","line1":"1 69617U 26140AB  26263.16670139 -.00021926  00000+0 -15983-2 0  9993","line2":"2 69617  51.8870 305.4219 0003540 298.7217 109.3365 15.02943342  1935","mean_motion":15.02943342,"eccentricity":0.000354,"inclination_deg":51.887,"raan_deg":305.4219,"arg_perigee_deg":298.7217,"mean_anomaly_deg":109.3365,"bstar":-0.0015983,"rev_number":193,"period_min":95.811995020635,"perigee_km":555.37068558076,"apogee_km":560.28134739643,"semimajor_km":6935.9630164886,"source":"CELESTRAK","updated_at":"2026-09-20T09:00:25.005675Z"}}}